Theta_e
282 281 282 281 281 282 282 282 283 283 283 282 281 282 282 282 283 282 283 282 283 284 282 281 282 281 281 281 281 281 281 281 281 281 282 282 283 283 284 284 284 285 285 285 285 285 285 285 285 285 286 286 286 287 287 286 286 285 286 286 285 286
282 282 282 282 282 283 283 283 284 284 284 284 283 283 283 284 284 284 284 283 282 282 281 281 281 281 282 282 282 282 282 282 282 282 281 281 281 281 281 282 283 284 284 284 285 285 285 285 285 285 285 285 285 285 286 286 286 285 285 286 286 286
283 284 284 284 284 283 284 284 285 285 284 283 283 282 282 281 282 282 282 283 284 283 283 283 283 283 283 282 282 282 282 282 283 283 283 283 282 282 282 281 281 281 282 283 283 283 284 284 284 285 285 285 285 285 285 285 285 285 285 285 285 284
283 284 284 283 283 283 283 282 282 281 282 282 281 280 280 280 280 280 280 280 281 281 282 282 282 282 281 280 280 280 280 280 281 281 282 282 283 283 282 282 282 282 281 281 281 282 283 283 283 284 284 284 284 285 286 286 285 284 284 284 284 284
281 280 280 281 283 283 282 281 282 282 281 281 281 280 280 280 280 280 279 279 279 279 279 279 280 280 280 279 280 280 280 280 280 281 280 281 281 282 282 282 282 281 282 282 282 281 282 282 282 283 283 283 283 283 284 285 284 284 284 284 284 284
280 280 280 280 280 281 282 282 282 281 281 281 280 280 279 279 279 279 279 278 278 277 277 277 278 278 278 278 278 278 279 279 280 280 280 280 279 280 281 281 280 280 280 281 281 281 281 281 281 282 282 282 283 283 283 283 283 283 284 284 284 284
278 279 278 279 279 280 280 280 281 280 280 279 279 279 279 278 278 278 278 278 277 277 277 276 277 277 277 277 278 278 278 278 278 279 279 279 279 279 279 280 279 280 279 280 279 280 280 280 281 281 281 282 282 282 282 282 282 282 283 283 284 285
279 279 280 279 279 279 279 279 279 279 279 279 279 280 279 279 278 278 278 277 277 277 276 277 276 277 277 277 277 278 278 278 278 278 278 278 279 279 279 279 279 279 279 279 279 279 279 280 280 280 280 281 281 281 281 282 282 282 282 282 283 283
278 278 278 278 278 277 277 278 278 278 278 278 278 278 278 279 278 278 277 276 276 277 277 278 278 278 278 278 278 278 278 278 278 278 278 278 278 278 278 278 278 278 278 278 279 278 278 278 279 279 280 280 280 281 281 281 281 281 281 282 282 282
277 277 278 278 278 277 277 277 278 279 279 280 280 279 279 280 278 278 278 277 277 277 278 278 278 278 279 279 278 278 278 278 277 277 277 277 277 277 278 278 278 278 278 278 278 278 278 278 278 278 278 279 280 280 280 280 281 281 281 281 281 282
278 278 277 278 277 277 278 278 278 278 278 278 278 278 279 278 279 278 277 277 277 277 277 278 278 279 278 278 278 278 279 278 278 278 277 277 277 278 277 277 277 277 278 278 277 277 277 278 278 278 278 278 279 279 279 280 280 280 280 281 281 282
278 278 278 278 278 278 278 278 278 279 279 279 279 278 278 279 278 277 277 277 277 277 277 278 278 278 278 278 278 278 278 278 278 278 278 278 278 277 277 277 277 277 277 277 277 277 277 277 278 280 282 283 281 280 280 281 281 280 280 280 280 281
277 277 277 278 278 278 279 279 278 278 277 277 278 278 278 277 277 276 276 276 277 277 277 277 278 278 277 278 278 278 278 278 278 277 277 277 277 277 277 277 276 276 276 276 276 276 276 277 277 280 282 283 283 281 280 281 281 281 281 280 280 280
276 276 277 277 277 277 277 277 277 277 277 277 277 277 276 276 275 276 276 276 276 276 276 277 277 277 277 277 277 277 277 277 276 276 276 276 276 277 277 276 276 276 276 276 276 276 276 276 279 281 282 282 283 282 280 280 280 281 280 280 280 280
277 277 276 276 276 277 276 276 276 276 276 276 276 275 276 275 275 275 275 275 275 276 276 276 276 276 276 276 275 275 275 275 275 275 275 275 276 276 275 275 276 275 276 275 275 275 275 275 279 280 281 281 282 282 281 279 279 279 279 280 280 280
276 276 276 276 276 276 276 276 276 276 276 275 275 275 275 275 275 275 274 274 274 275 275 275 274 274 274 274 273 273 273 272 272 273 274 274 274 274 274 274 274 274 274 274 274 274 274 274 277 279 280 280 281 282 281 278 278 278 279 279 280 280
275 275 275 276 276 276 275 275 275 274 274 274 274 274 274 274 273 273 273 273 273 273 273 272 272 271 271 271 271 270 270 271 271 272 272 272 272 272 272 272 272 272 272 273 273 273 273 273 277 278 279 280 281 281 281 277 277 277 277 278 278 279
276 275 276 276 275 274 274 273 273 273 273 273 273 272 271 272 271 271 271 271 271 271 271 270 269 269 268 268 268 268 268 269 269 268 269 269 269 269 270 270 270 270 270 270 271 270 270 271 276 277 278 279 279 280 276 275 275 275 275 275 276 277
276 276 275 274 273 273 272 272 272 271 271 270 270 269 269 269 268 269 269 269 269 269 268 268 267 266 266 266 266 266 266 266 265 265 266 265 266 266 266 266 267 268 268 268 268 268 269 269 272 276 277 277 278 277 274 274 273 273 273 273 274 275
275 275 274 272 272 271 271 271 270 269 268 268 268 266 267 266 266 267 266 267 267 267 266 265 265 264 264 264 263 263 263 263 263 263 264 263 263 263 264 264 265 265 266 266 266 267 267 267 270 274 275 276 276 275 272 272 271 271 271 272 273 273
274 273 272 271 270 270 270 268 267 266 266 266 266 265 264 264 266 265 265 265 265 265 264 264 263 263 262 262 262 262 261 261 261 262 262 262 262 262 263 263 262 263 263 264 265 267 266 265 267 271 272 273 274 272 270 270 270 270 271 271 271 272
272 271 270 269 269 268 267 266 265 264 265 265 265 264 263 264 264 264 264 264 264 263 263 262 262 262 261 261 261 261 261 261 261 261 261 261 261 261 261 261 261 261 261 262 263 263 264 264 264 266 271 272 273 274 270 270 269 269 270 271 271 271
271 270 269 269 268 267 266 265 263 263 263 264 263 262 263 264 264 263 263 263 262 262 261 261 261 260 260 260 260 260 260 260 260 260 260 259 260 260 260 260 260 260 261 261 262 262 263 263 264 265 270 271 272 273 272 268 269 269 269 269 270 270
268 268 267 266 266 265 264 263 261 262 261 261 261 261 263 263 262 262 261 261 261 260 260 259 260 260 260 260 260 259 259 260 260 259 259 259 259 259 259 259 259 259 260 261 261 262 262 264 266 264 268 270 271 272 273 269 268 269 269 268 269 269
267 266 266 266 264 264 264 261 259 260 260 260 261 262 262 262 261 261 260 260 259 259 259 259 258 259 259 259 259 258 258 259 258 259 259 258 258 258 258 258 259 259 259 259 260 261 262 262 263 267 266 269 271 272 272 272 271 273 270 268 268 268
265 265 264 264 263 262 262 260 259 259 259 260 262 262 261 260 260 259 259 259 258 258 258 258 258 258 258 258 258 258 258 258 258 258 258 258 258 258 258 258 258 258 258 258 259 260 261 262 262 265 268 267 270 271 272 273 273 273 269 269 268 268
263 263 262 263 261 261 260 260 258 258 257 260 260 260 259 259 258 258 258 257 257 257 258 258 258 258 257 258 258 257 258 257 257 257 258 258 258 257 257 257 258 257 257 258 258 259 260 261 261 262 265 269 270 271 272 272 273 273 273 268 268 268
260 260 260 261 261 260 259 259 258 256 259 260 259 259 258 258 257 257 257 257 257 258 258 257 257 257 258 258 258 258 258 257 257 257 257 257 257 257 257 257 257 257 257 257 258 259 259 261 261 261 262 264 266 267 269 270 271 271 272 271 269 272
260 259 259 258 259 259 258 257 257 258 259 258 259 259 257 256 257 257 257 257 257 257 257 257 257 258 258 258 258 258 258 258 257 257 257 257 256 256 257 257 257 257 258 258 259 259 260 260 261 261 262 263 263 263 264 264 265 269 270 267 266 268
260 258 258 258 259 258 257 257 256 257 257 257 258 256 256 256 257 257 257 257 257 257 257 257 258 258 257 257 257 257 257 257 257 256 256 256 257 257 257 258 258 259 259 259 260 261 261 262 262 263 263 263 263 263 264 264 264 264 264 264 265 265
258 258 257 257 258 257 256 255 256 256 257 258 257 256 255 256 257 257 256 257 257 257 258 257 257 257 257 256 257 257 257 256 256 257 258 260 260 260 260 260 262 263 264 264 263 263 263 264 264 265 269 268 271 269 268 267 267 266 265 267 270 268
257 257 256 257 257 256 255 255 256 256 258 256 255 255 255 256 256 256 256 257 257 257 257 257 257 257 257 256 256 256 257 261 265 264 261 261 265 268 270 269 265 266 266 265 266 266 265 264 266 271 273 273 273 273 274 273 273 273 272 273 275 273
257 256 255 256 256 255 255 256 256 256 256 257 257 256 256 255 256 256 256 257 256 257 257 257 256 257 257 257 257 256 256 256 258 265 267 267 267 268 270 270 271 271 271 268 266 267 272 272 273 272 272 273 273 273 273 274 274 274 275 276 272 270
256 256 256 256 256 255 255 255 256 255 255 255 256 256 255 255 256 256 256 256 257 257 257 257 257 257 256 257 257 256 256 256 256 257 264 267 267 268 269 270 270 271 271 271 270 268 266 270 272 273 272 273 273 273 274 274 274 275 275 276 276 270
257 257 256 255 254 254 254 255 255 255 255 256 256 255 255 256 256 256 256 256 256 257 257 257 256 256 256 256 256 256 256 256 256 256 257 260 266 268 268 269 270 270 270 271 271 272 271 271 272 272 272 273 273 273 273 274 275 276 276 276 272 269
255 255 254 253 253 254 254 254 255 255 256 256 256 256 255 255 255 256 256 256 256 256 256 256 256 256 257 257 257 257 257 257 257 257 257 257 258 260 263 267 268 269 270 270 271 271 272 272 272 273 272 272 273 273 274 274 272 275 276 274 270 269
254 253 254 255 254 254 254 255 255 255 255 255 255 254 254 255 255 256 256 257 257 256 256 256 257 257 257 257 257 257 257 257 258 258 258 258 258 258 258 259 261 265 269 267 268 270 271 271 272 273 273 272 273 274 275 274 270 268 268 269 269 269
253 253 253 254 254 252 254 255 256 255 254 254 254 254 254 255 256 255 256 256 256 256 256 256 256 257 257 257 257 258 258 259 259 258 258 259 259 259 259 259 260 261 266 269 269 270 270 271 272 272 273 273 274 274 274 269 267 267 267 268 268 269
Wind_Speed
1 1 1 2 2 2 2 4 4 5 5 5 4 5 5 5 5 5 6 5 5 5 6 6 6 4 4 3 3 3 4 6 5 5 5 6 6 7 8 7 7 7 9 8 9 9 8 7 8 7 7 7 7 7 7 6 5 6 7 7 6 7
0 0 1 2 2 2 2 2 3 3 2 3 3 3 3 4 5 5 5 5 4 5 3 4 3 4 5 7 7 9 8 7 7 7 6 5 4 5 5 6 7 8 8 8 8 9 9 10 9 8 7 7 6 6 7 7 6 7 7 8 7 6
2 2 2 2 2 2 2 1 0 0 0 0 0 1 3 4 4 4 4 4 4 4 3 4 3 4 4 5 4 4 5 6 8 9 8 9 10 8 8 6 5 5 6 6 7 7 8 8 9 9 8 8 8 8 7 7 7 7 8 7 9 7
2 2 3 3 3 3 2 2 1 1 0 1 1 2 1 2 3 4 4 4 3 4 4 4 4 4 5 4 5 4 4 3 4 4 5 7 8 7 9 11 10 9 8 5 6 7 7 7 8 7 7 8 9 9 6 6 7 8 8 7 8 8
4 3 2 3 3 2 1 1 0 0 0 0 0 1 0 0 1 2 2 2 2 3 3 2 2 2 3 2 4 4 4 3 4 4 4 5 5 5 6 6 7 8 10 10 10 9 7 7 7 7 7 8 8 8 8 8 7 7 8 8 9 9
1 1 3 3 3 2 1 0 0 0 0 0 0 0 1 1 1 1 1 1 2 3 3 3 3 4 4 4 4 5 5 5 4 4 4 5 4 7 7 5 6 6 8 9 10 10 11 11 9 7 6 8 8 8 9 8 9 9 8 9 9 8
4 3 3 3 2 1 1 0 1 1 1 2 2 3 3 2 1 0 1 1 2 3 3 4 3 4 5 5 5 6 6 5 5 4 5 5 5 5 6 6 5 6 5 7 8 9 9 10 10 12 11 9 6 7 9 9 8 8 9 10 10 9
1 2 1 1 1 2 2 2 2 2 3 3 3 3 2 1 1 0 1 2 3 4 4 4 4 5 6 6 6 6 6 7 6 7 6 5 7 7 5 7 7 6 8 7 7 7 8 9 9 9 10 11 12 10 9 8 8 8 8 9 9 9
2 4 3 3 3 3 3 3 3 3 3 3 3 3 2 2 0 1 2 3 4 5 7 8 8 8 7 7 7 7 7 7 7 7 7 6 6 7 8 7 7 7 7 8 8 8 9 8 8 9 10 10 10 10 12 12 11 10 9 7 8 8
4 4 5 4 4 3 3 3 3 3 4 4 4 2 1 1 1 1 1 2 4 4 5 6 6 7 8 8 8 8 7 7 7 7 7 6 7 8 7 8 8 9 7 8 8 9 8 8 9 9 9 9 9 10 10 10 11 12 11 11 10 9
5 5 5 5 4 4 4 4 5 4 4 4 4 3 3 2 1 3 3 4 5 5 5 6 6 6 8 9 10 11 11 10 10 9 8 7 7 8 8 8 8 9 9 8 8 9 8 9 10 9 8 9 10 9 10 11 11 12 12 12 12 11
6 6 5 5 5 5 5 5 5 5 5 5 5 3 4 2 2 2 4 4 5 5 6 7 8 9 10 10 11 11 11 11 11 11 11 12 11 10 9 9 10 10 10 11 10 9 9 9 8 10 17 16 12 11 11 11 11 11 11 11 12 12
5 5 5 5 6 7 6 4 4 4 4 4 4 4 4 4 5 5 4 5 5 6 6 7 9 9 11 10 10 10 11 12 11 11 11 12 12 13 12 11 12 11 11 12 12 13 11 10 10 17 20 21 23 15 12 12 12 12 11 11 12 13
3 4 4 4 4 5 4 3 3 4 4 3 4 4 4 5 4 4 5 5 5 6 8 8 9 10 10 9 9 10 9 10 11 11 12 12 13 13 11 12 12 12 12 11 12 13 13 13 15 23 23 23 23 21 14 12 12 12 12 12 13 13
2 2 3 4 4 4 4 4 4 4 3 4 3 3 5 4 4 4 5 6 7 8 8 8 8 9 9 9 8 8 9 10 11 12 13 14 13 12 12 13 13 13 13 12 13 14 14 14 19 25 26 26 26 25 21 12 13 14 14 14 15 15
4 5 5 4 3 3 3 4 4 3 3 4 5 6 5 6 6 6 7 7 7 7 8 8 8 9 9 9 10 10 11 11 12 12 11 11 11 12 13 13 14 14 14 14 14 14 14 16 18 26 27 27 27 27 23 13 14 15 15 16 16 15
5 4 4 3 3 3 4 5 4 3 5 5 6 4 6 6 7 7 7 8 8 7 7 8 8 9 10 10 10 11 12 12 12 12 11 10 11 13 13 13 14 14 15 15 14 15 16 16 25 28 29 28 29 29 25 15 15 15 15 16 16 17
6 5 4 2 5 4 5 4 4 5 5 4 5 5 5 5 6 7 7 7 7 7 8 8 9 9 9 10 11 11 12 12 11 12 12 12 12 12 13 14 13 16 17 16 15 16 18 18 29 30 30 30 29 31 19 14 14 14 14 16 17 16
5 4 4 4 5 5 5 3 4 5 5 5 4 4 4 4 5 6 6 5 7 8 8 8 9 10 11 11 11 11 11 11 12 12 10 13 13 13 13 13 14 13 14 16 15 15 17 18 24 30 30 30 32 25 15 14 14 14 15 17 16 15
4 4 6 6 6 4 3 3 3 4 4 4 4 4 4 4 5 4 5 6 6 7 8 8 9 10 11 11 11 12 12 11 11 11 10 11 13 14 12 12 13 12 11 13 14 12 15 18 23 30 30 31 32 27 19 14 14 15 16 16 16 15
6 6 6 6 5 3 3 3 3 3 3 3 4 3 4 4 4 5 6 7 7 7 7 7 8 9 11 12 12 11 13 13 12 11 10 10 10 11 10 10 11 14 11 10 14 22 22 17 22 29 30 33 31 24 16 14 13 13 14 13 14 14
6 5 6 5 3 2 3 3 2 2 3 3 3 4 4 4 5 6 6 7 7 7 7 7 9 9 10 12 13 11 11 11 11 11 11 12 10 12 11 11 12 14 12 11 13 12 13 16 18 20 29 28 29 28 19 14 14 14 15 13 12 12
6 6 5 4 3 2 2 2 2 3 2 3 3 4 4 4 5 6 6 7 7 7 7 7 7 10 11 9 11 11 11 10 12 12 12 12 10 9 11 12 12 12 13 10 11 12 12 12 16 17 27 28 28 28 24 14 14 15 15 14 16 13
5 5 4 3 3 2 1 1 3 3 3 3 4 3 3 5 6 6 6 7 7 7 7 7 8 8 9 10 10 11 11 10 11 11 12 11 12 14 15 13 13 12 11 9 9 10 11 14 22 18 23 27 28 27 28 18 14 15 13 16 14 15
4 4 4 2 2 2 1 2 3 3 3 4 4 3 4 5 5 7 7 8 8 8 8 8 8 9 8 9 10 10 12 11 11 12 12 13 13 13 14 13 12 13 12 11 8 9 10 11 13 22 20 25 28 28 27 28 24 27 19 15 17 17
4 3 2 2 1 1 1 2 3 3 4 5 3 4 4 4 5 6 7 8 8 8 8 7 8 9 8 9 10 9 12 12 11 11 11 11 11 11 12 12 11 12 12 12 12 9 9 10 10 17 25 23 28 28 30 30 31 31 20 18 16 16
2 2 0 0 1 1 1 1 2 4 5 5 3 4 5 5 6 7 8 9 8 8 8 8 8 9 8 8 9 11 11 12 10 11 10 11 11 10 11 10 10 10 12 13 12 12 10 10 11 11 17 27 30 31 31 32 33 31 31 22 16 17
2 1 0 0 0 0 1 1 1 4 5 4 4 5 4 6 7 8 9 9 8 9 9 10 9 7 8 10 9 9 10 10 10 10 11 11 11 11 11 12 11 11 10 11 11 12 13 12 11 13 13 15 20 22 28 32 32 32 33 31 25 32
1 2 2 1 0 0 1 2 3 4 4 5 5 5 5 5 7 9 9 9 9 9 8 9 9 9 9 9 9 8 9 9 9 9 11 11 11 11 11 11 11 12 12 13 13 13 12 11 10 11 12 11 12 13 15 17 17 24 27 21 17 20
1 3 3 4 1 1 2 3 4 4 4 5 5 4 5 6 7 9 10 10 9 8 8 8 8 10 10 9 9 10 10 8 8 9 11 11 11 12 13 12 13 14 13 13 12 12 10 10 9 10 11 12 12 12 12 13 13 13 12 14 15 16
1 2 3 4 2 2 3 4 4 4 5 5 4 4 5 7 7 9 9 9 8 8 7 8 9 9 10 10 9 9 9 10 9 10 11 12 10 10 12 13 13 13 12 11 11 13 13 11 12 12 17 20 25 21 15 11 9 10 11 16 24 19
1 2 3 3 2 2 3 4 4 4 5 4 4 4 5 7 8 8 9 8 8 8 8 8 9 9 9 10 10 10 10 14 21 16 12 13 20 28 29 25 17 17 15 14 12 11 14 14 15 29 36 32 31 31 31 29 29 28 23 25 32 24
1 1 3 4 2 2 3 5 5 5 5 4 4 4 5 6 7 8 8 8 8 9 10 9 9 9 9 10 10 9 10 11 13 20 24 23 25 26 29 28 30 32 30 22 16 17 30 33 35 34 32 33 33 33 33 31 30 30 30 30 22 16
2 3 4 2 2 4 4 6 6 4 5 4 4 4 5 5 6 8 9 9 9 10 9 9 9 10 10 10 9 9 9 10 12 15 21 23 23 27 28 28 29 29 29 30 27 22 16 23 30 34 33 32 33 30 30 30 29 28 29 28 30 17
3 3 2 2 3 4 5 7 7 4 4 4 4 5 5 6 6 8 9 9 9 9 10 9 9 9 10 10 11 10 9 10 10 12 15 20 25 27 26 27 28 28 27 29 29 30 27 28 30 33 32 32 32 31 29 29 30 30 31 32 19 11
2 2 3 3 4 5 5 7 7 5 4 4 5 5 5 6 7 7 8 8 10 10 9 9 9 10 10 10 10 10 10 10 10 11 12 13 15 19 22 23 24 24 26 27 28 29 28 28 30 31 32 32 31 31 29 27 22 29 31 24 14 13
2 3 3 4 4 4 5 8 7 4 4 4 5 5 6 6 7 7 8 11 10 8 8 8 8 9 10 10 10 10 10 10 10 11 11 11 13 13 14 16 18 22 26 24 22 25 28 28 29 30 30 31 30 30 29 27 15 13 13 13 11 12
3 4 3 4 5 5 6 9 6 4 4 5 5 5 6 7 7 7 7 7 9 8 8 8 8 9 9 10 10 10 10 10 10 11 11 11 11 12 13 14 13 14 20 29 26 27 26 28 29 28 29 29 29 27 26 12 11 12 12 12 13 13
Wind_Direction
150 45 8 355 13 34 48 33 29 29 27 24 35 20 6 360 0 5 359 11 7 1 359 5 8 14 14 2 360 1 12 9 1 359 351 354 357 359 358 353 352 351 345 347 342 339 337 332 328 326 324 321 313 303 292 288 281 275 275 272 266 264
270 311 2 350 358 355 15 50 51 42 20 30 5 359 357 358 2 360 359 346 2 347 338 333 347 358 359 0 1 3 2 355 353 351 357 357 346 354 352 351 349 347 345 342 340 336 336 336 332 332 327 323 312 302 300 288 286 281 273 274 267 265
359 347 333 347 344 353 337 45 33 219 258 314 10 42 351 5 345 356 345 340 336 355 337 331 351 356 357 6 356 4 350 350 348 349 344 343 352 352 349 351 347 339 338 334 334 333 329 329 328 330 330 326 319 313 300 295 290 282 278 274 275 268
256 282 303 311 324 304 310 311 9 358 333 227 90 38 4 11 346 348 340 338 334 349 342 338 350 359 352 357 337 337 331 327 330 323 335 338 330 347 342 341 341 338 335 331 324 327 324 322 323 321 323 319 319 315 309 300 293 286 279 276 276 275
224 235 246 256 250 264 274 284 236 214 199 201 159 109 295 214 275 308 315 323 320 327 320 326 336 335 332 337 316 308 308 308 320 322 326 314 316 324 326 322 326 326 329 329 327 325 324 320 319 321 319 315 310 306 307 306 298 286 282 279 269 269
214 115 104 113 121 107 90 205 284 333 299 263 201 203 241 262 242 261 299 313 328 329 338 336 323 347 331 339 315 313 299 302 307 308 310 295 303 309 304 308 308 315 317 316 316 320 320 320 316 313 310 309 309 306 301 300 298 295 286 277 272 267
113 131 142 138 136 160 178 200 211 225 242 224 213 226 227 239 237 302 327 26 350 341 347 330 328 332 327 321 316 308 300 291 292 292 284 286 287 280 283 281 279 283 283 286 291 299 305 307 312 316 314 305 295 296 297 294 290 286 285 282 281 277
140 121 120 202 220 202 216 234 231 245 237 247 229 223 257 265 242 257 23 360 2 339 343 329 335 330 322 314 308 304 299 296 297 298 292 285 290 290 282 281 283 276 278 274 273 276 282 288 295 296 296 301 307 305 295 287 282 277 274 276 275 274
228 213 226 217 226 223 220 219 230 222 218 238 235 231 228 246 205 331 20 354 357 347 346 347 339 329 321 314 308 306 306 302 301 299 294 292 285 289 291 284 280 276 271 275 275 272 272 273 273 277 280 284 287 290 295 298 296 289 283 272 268 266
226 224 221 216 227 234 247 242 238 248 259 271 280 245 234 216 194 307 334 348 340 341 329 321 314 313 310 308 307 305 300 297 296 295 293 296 294 288 283 284 285 285 280 276 276 274 273 273 275 271 267 264 265 271 275 276 281 285 287 287 283 279
228 230 226 222 228 239 253 262 268 267 269 258 251 263 267 261 303 313 336 341 338 323 316 315 312 307 306 308 310 311 311 309 305 299 292 287 286 288 286 285 282 285 285 279 273 275 270 271 272 274 271 273 273 267 264 266 266 268 272 276 279 275
227 229 229 235 231 236 248 254 256 250 249 256 263 281 288 11 313 348 343 342 326 321 322 317 314 312 310 310 309 308 307 307 307 307 307 306 302 297 293 289 287 285 286 289 287 281 279 276 274 266 270 273 275 276 275 270 266 262 261 265 270 274
233 229 228 236 231 232 243 269 288 315 319 330 344 350 345 30 19 8 350 329 321 320 317 318 314 312 309 306 308 306 306 305 305 304 303 303 302 301 299 294 290 291 291 291 293 293 289 283 280 280 284 285 284 282 280 278 275 270 266 263 264 265
289 282 273 300 352 16 24 15 16 42 25 21 30 9 17 22 2 344 325 316 316 319 326 321 312 307 304 307 304 304 304 306 307 305 304 303 301 298 294 291 289 288 288 289 289 288 288 288 285 287 289 289 289 287 284 281 279 276 273 272 268 266
51 52 77 94 92 65 43 69 60 40 15 25 348 4 6 349 341 329 325 324 333 331 324 316 310 308 309 311 311 310 311 310 307 306 304 300 298 298 295 293 294 292 291 289 287 285 286 285 286 289 291 292 292 291 290 284 282 281 279 276 273 271
101 105 114 121 120 108 80 62 60 28 23 11 2 7 352 353 342 343 330 328 328 325 319 316 316 313 314 318 318 317 313 310 304 301 299 299 301 299 299 298 297 296 294 293 292 290 288 285 286 290 293 294 295 295 295 290 287 284 279 277 274 271
130 128 110 95 77 62 70 45 32 18 22 9 1 357 357 346 338 331 327 321 321 324 322 322 320 318 318 319 318 315 310 307 306 306 309 311 306 305 303 302 302 298 296 296 295 294 292 289 291 293 294 296 297 296 297 294 290 287 285 283 282 278
142 135 129 109 72 68 63 47 20 25 7 3 358 350 345 333 324 316 316 315 322 328 330 329 322 320 321 318 314 310 307 308 311 315 318 311 303 300 299 296 297 296 296 296 296 296 292 291 293 295 296 296 296 295 294 292 288 288 286 285 284 282
144 138 114 90 80 67 48 32 29 19 2 353 338 332 321 318 309 307 314 321 329 331 333 334 326 320 318 315 312 309 311 314 313 310 311 303 301 300 299 298 295 295 296 296 296 294 292 291 294 297 297 297 296 296 294 291 287 283 282 280 281 280
121 118 113 102 79 66 48 37 37 16 349 325 321 319 306 307 300 317 329 331 332 331 333 329 324 317 315 314 311 311 309 309 304 301 305 299 301 298 298 301 298 295 295 296 297 295 295 294 296 299 301 300 298 297 297 296 291 284 280 279 277 277
128 115 100 95 84 58 57 42 34 356 327 315 309 304 305 309 322 341 337 329 328 326 324 320 315 310 308 307 305 307 306 305 302 299 297 289 289 287 291 290 290 289 287 287 290 297 297 298 300 302 301 298 297 298 294 290 283 281 277 276 276 273
111 96 98 100 96 91 57 40 13 329 306 308 303 312 317 330 345 338 327 321 318 316 312 310 306 303 303 302 302 300 297 299 299 297 297 292 286 288 288 285 283 284 287 290 289 287 287 291 293 297 299 299 299 299 297 290 288 284 287 285 282 282
111 120 122 109 94 75 49 25 4 326 311 307 318 315 328 340 335 324 315 310 306 304 302 299 299 299 297 293 294 297 297 296 295 298 296 293 288 277 282 285 281 281 283 282 281 282 283 283 290 295 299 299 300 299 298 291 286 287 286 282 277 267
112 111 102 93 81 72 39 31 351 315 312 314 309 311 331 328 317 310 306 304 302 299 296 296 294 289 291 294 293 295 294 291 290 292 293 290 291 291 289 287 286 284 283 278 275 277 280 286 292 294 297 297 297 297 295 293 285 284 282 281 276 278
122 125 123 105 92 62 16 27 337 313 314 311 302 322 317 310 309 306 305 303 299 298 297 296 293 294 294 292 292 292 293 294 293 292 289 290 290 288 288 287 286 288 287 287 280 279 278 279 282 291 293 295 296 296 295 292 292 291 289 286 285 285
129 124 113 108 88 55 17 355 326 315 317 300 305 310 307 306 306 307 304 299 297 299 297 295 294 291 290 291 293 292 292 295 293 291 290 289 288 289 290 290 290 293 293 293 293 284 279 279 280 286 289 291 292 292 292 292 291 291 287 284 281 284
121 117 109 130 90 10 349 327 327 308 303 297 314 305 307 308 310 308 301 298 298 297 296 296 292 292 289 292 297 298 294 291 293 295 292 293 292 288 288 287 289 289 292 293 292 289 279 274 273 272 278 282 286 289 290 289 288 288 287 285 282 277
117 111 136 236 163 347 306 312 316 304 287 299 300 298 301 311 311 304 299 299 298 299 301 299 293 288 295 297 293 285 284 288 295 293 294 294 291 291 289 290 291 286 283 281 279 281 281 278 272 272 271 269 272 273 276 279 282 283 283 281 280 281
10 335 324 313 241 314 302 303 285 267 282 288 292 299 307 306 301 296 297 300 302 301 299 296 302 307 305 297 292 286 285 287 285 288 291 291 292 291 288 287 286 285 283 281 280 279 278 272 267 268 265 264 264 260 260 265 266 270 275 280 276 275
344 308 309 304 292 321 300 293 281 276 276 280 288 300 308 302 295 297 300 302 302 300 299 297 298 303 303 297 296 295 292 283 282 285 288 290 290 291 289 288 286 284 282 282 282 281 275 274 267 268 275 274 264 262 262 255 255 255 246 256 264 261
254 262 272 280 294 298 296 281 279 277 278 284 295 305 307 297 296 295 297 299 301 300 300 299 303 302 298 296 290 280 281 287 285 280 279 276 269 273 279 282 283 284 286 284 288 294 290 287 287 284 290 290 293 294 288 273 257 241 240 241 246 254
210 245 271 279 284 280 277 280 279 275 275 282 289 297 295 295 301 302 302 304 304 303 305 306 305 302 298 294 294 292 284 282 293 294 293 291 293 296 296 296 295 295 298 297 291 290 295 298 295 300 302 302 300 298 297 295 293 293 291 289 287 288
200 252 275 274 266 271 278 285 281 280 281 286 295 290 284 291 301 301 301 308 307 306 308 308 306 303 297 294 294 292 295 302 299 299 301 299 299 300 301 301 301 302 303 302 300 298 299 300 302 303 301 299 300 302 301 301 300 299 297 294 291 286
236 247 258 262 276 287 287 285 283 278 285 294 291 281 279 287 295 301 303 305 304 306 306 305 303 301 298 297 294 295 299 301 307 307 307 307 306 305 304 303 304 305 305 305 305 304 301 301 302 301 300 303 306 308 307 305 303 300 297 294 295 292
224 233 244 263 275 281 282 282 283 285 293 295 286 282 288 290 293 296 299 301 303 302 303 304 304 301 300 300 302 302 303 304 306 306 309 312 311 310 307 306 307 308 308 308 309 308 307 308 308 309 310 310 308 310 310 307 306 304 301 300 297 284
215 239 250 262 266 270 277 280 284 292 295 289 283 286 285 288 287 289 293 300 303 303 303 305 303 302 299 297 297 296 300 298 297 297 299 305 312 318 317 313 312 312 314 313 313 313 314 314 314 313 310 309 309 308 308 308 308 306 304 303 297 289
240 251 254 258 271 277 279 278 283 288 284 283 285 288 288 289 293 294 289 290 294 291 295 298 300 298 296 295 295 295 297 297 297 298 299 301 305 306 306 309 314 315 318 318 316 316 318 317 315 314 312 311 311 311 311 316 314 306 304 305 293 286
251 256 259 264 266 268 274 277 282 284 283 283 283 286 290 297 299 297 297 302 301 298 294 298 297 294 293 293 291 294 297 300 301 302 300 301 298 298 299 301 304 304 311 315 317 317 318 319 319 317 316 316 317 318 323 321 307 304 301 298 297 292